Flag for Japan Weather past 2 weeks in Yokohama, Japan

Now
45 °F

Partly cloudy.


Feels Like: 36 °F
Forecast: 39 / 51 °F
Wind: 23 mph from Northwest

Location: Tokyo International Airport

Current Time: Feb 27, 2015 at 10:35:30 PM

Latest Report: Feb 27, 2015 at 10:00 PM


Visibility: N/A

Pressure: 29.98 "Hg

Humidity: 37%

Dew point: 19 °F

Location of YokohamaLocation

Historic Weather in Yokohama — Graph

°F

Yokohama temperature yesterday

Maximum temperature yesterday: 46 °F (at 12:00 AM)
Minimum temperature yesterday: 43 °F (at 10:30 PM)
Average temperature yesterday: 45 °F

Past Weeks' High & Low Weather Summary

 TemperatureHumidityPressure
High66 °F (Feb 23, 2:30 PM)100% (Feb 22, 11:47 PM)30.39 "Hg (Feb 22, 11:47 PM)
Low32 °F (Feb 14, 6:00 AM)16% (Feb 14, 2:00 PM)29.53 "Hg (Feb 12, 11:30 PM)
Average45 °F66%29.92 "Hg
* Reported Feb 12 9:00 PM — Feb 27 9:30 PM, Yokohama, Weather by CustomWeather, © 2015

Note: Actual official high and low records may vary slightly from our data, if they occured in-between our weather recording intervals... More about our weather records

Advertising

Yokohama weather history for previous 24 hours

 ConditionsComfort  
Time TempWeatherWind HumidityBarometerVisibility
9:30 PM
Fri, Feb 27
45 °FPartly cloudy.24 mph34%29.95 "HgN/A
9:03 PM45 °FPassing clouds.23 mph34%29.95 "HgN/A
9:00 PM45 °FPassing clouds.23 mph34%29.95 "HgN/A
8:30 PM45 °FPassing clouds.28 mph37%29.92 "HgN/A
8:00 PM46 °FPassing clouds.29 mph29%29.92 "HgN/A
7:30 PM46 °FPassing clouds.25 mph34%29.89 "HgN/A
7:00 PM46 °FPassing clouds.25 mph34%29.86 "HgN/A
6:30 PM46 °FPassing clouds.28 mph34%29.86 "HgN/A
6:00 PM48 °FPassing clouds.29 mph34%29.83 "HgN/A
5:30 PM48 °FPartly sunny.20 mph34%29.83 "HgN/A
5:00 PM50 °FPartly sunny.24 mph37%29.80 "HgN/A
4:30 PM50 °FScattered clouds.23 mph40%29.80 "HgN/A
4:00 PM52 °FPassing clouds.22 mph41%29.77 "HgN/A
3:30 PM54 °FPassing clouds.20 mph30%29.74 "HgN/A
3:00 PM54 °FPassing clouds.17 mph35%29.74 "HgN/A
2:30 PM54 °FScattered clouds.22 mph33%29.71 "HgN/A
2:00 PM55 °FScattered clouds.13 mph36%29.71 "HgN/A
1:30 PM54 °FScattered clouds.15 mph35%29.71 "HgN/A
12:30 PM54 °FPartly sunny.12 mph44%29.71 "HgN/A
12:00 PM54 °FScattered clouds.9 mph44%29.71 "HgN/A
11:30 AM54 °FScattered clouds.10 mph51%29.74 "HgN/A
11:00 AM52 °FScattered clouds.7 mph50%29.74 "HgN/A
10:30 AM52 °FScattered clouds.8 mph50%29.74 "HgN/A
10:00 AM52 °FPartly sunny.7 mph54%29.74 "HgN/A
9:30 AM52 °FPartly sunny.9 mph54%29.74 "HgN/A
9:00 AM50 °FPartly sunny.6 mph62%29.74 "HgN/A
8:30 AM48 °FScattered clouds.8 mph66%29.74 "HgN/A
8:00 AM46 °FPartly sunny.7 mph76%29.74 "HgN/A
7:30 AM45 °FPartly sunny.7 mph93%29.71 "HgN/A
7:00 AM45 °FPartly sunny.7 mph87%29.71 "HgN/A
6:30 AM45 °FPartly sunny.5 mph87%29.68 "HgN/A
6:00 AM43 °FPassing clouds.6 mph93%29.68 "HgN/A
5:30 AM43 °FPassing clouds.6 mph87%29.65 "HgN/A
5:00 AM43 °FPassing clouds.3 mph93%29.65 "HgN/A
4:30 AM45 °FPassing clouds.2 mph87%29.65 "HgN/A
4:00 AM43 °FFog.3 mph93%29.65 "HgN/A
3:30 AM43 °FFog.2 mph93%29.62 "HgN/A
3:00 AM43 °FPassing clouds.1 mph93%29.65 "HgN/A
2:30 AM43 °FPassing clouds.2 mph93%29.65 "HgN/A
2:00 AM43 °FPassing clouds.3 mph87%29.65 "HgN/A
1:30 AM41 °FPassing clouds.5 mph93%29.68 "HgN/A
1:00 AM43 °FPassing clouds.6 mph87%29.68 "HgN/A
12:30 AM43 °FPassing clouds.5 mph93%29.71 "HgN/A
12:00 AM43 °FPassing clouds.5 mph93%29.71 "HgN/A
11:30 PM
Thu, Feb 26
43 °FPartly cloudy.6 mph93%29.71 "HgN/A
11:00 PM45 °FPartly cloudy.12 mph87%29.74 "Hg6 mi
10:49 PM45 °FPassing clouds.10 mph87%29.74 "Hg4 mi
10:30 PM43 °FFog.10 mph93%29.77 "Hg3 mi
10:00 PM45 °FPassing clouds.13 mph87%29.77 "Hg4 mi
Weather by CustomWeather, © 2015

See weather overviewHow to use our weather pages